Regional Weather Roundup
Issued by NWS Little Rock, AR

Home | Current Version | Previous Version | Graphics & Text | Print | Product List | Glossary On
Versions: 1 2 3 4 5 6 7 8 9 10 11 12 13 14 15 16 17 18 19 20 21 22 23 24 25 26 27 28 29 30 31 32
000
ASUS44 KLZK 291905
RWRLZK

WEATHER ROUNDUP FOR ARKANSAS
NATIONAL WEATHER SERVICE LITTLE ROCK AR
200 PM CDT MON MAY 29 2017

NOTE: "FAIR" INDICATES FEW OR NO CLOUDS BELOW 12,000 FEET WITH NO
SIGNIFICANT WEATHER AND/OR OBSTRUCTIONS TO VISIBILITY.

ARZ001-003-010-029-292000-
NORTHWEST ARKANSAS

CITY           SKY/WX    TMP DP  RH WIND       PRES   REMARKS
FAYETTEVILLE   SUNNY     81  57  43 W9        30.06F
FORT SMITH     SUNNY     85  50  29 S8        30.05S
HARRISON       SUNNY     82  55  39 SW7       30.06S
BENTONVILLE    SUNNY     81  57  44 W8        30.07F
ROGERS         MOSUNNY   81  59  47 W8        30.06F
SILOAM SPGS    SUNNY     82  57  42 SW12      30.05F
HIGHFILL       SUNNY     83  57  41 NW8       30.06F
SPRINGDALE     SUNNY     81  54  39 SW12      30.07F
$$

ARZ004-005-016-292000-
NORTH CENTRAL ARKANSAS

CITY           SKY/WX    TMP DP  RH WIND       PRES   REMARKS
BATESVILLE     CLOUDY    82  54  36 NW5       30.02F
FLIPPIN        SUNNY     84  54  34 SW6       30.01F
MTN HOME       SUNNY     82  59  45 SW7       30.02F
$$

ARZ040-041-292000-
WEST CENTRAL ARKANSAS

CITY           SKY/WX    TMP DP  RH WIND       PRES   REMARKS
MENA           CLOUDY    82  52  34 N3        30.08F
MOUNT IDA      CLOUDY    84  46  26 CALM      30.04F
$$

ARZ009-017-025-026-028-292000-
NORTHEAST ARKANSAS

CITY           SKY/WX    TMP DP  RH WIND       PRES   REMARKS
JONESBORO      SUNNY     86  50  28 VRB5      30.00F
NEWPORT        SUNNY     85  59  41 CALM      30.01
WALNUT RIDGE   SUNNY     84  55  37 SW8       30.00F
BLYTHEVILLE    SUNNY     83  59  44 W5        29.99F
$$

ARZ022-023-033-042-044-292000-
CENTRAL ARKANSAS

CITY           SKY/WX    TMP DP  RH WIND       PRES   REMARKS
LITTLE ROCK    PTSUNNY   83  55  38 CALM      30.03F
N LITTLE ROCK    N/A     83  56  39 CALM      30.02F
JACKSONVILLE   CLOUDY    84  57  39 N3        30.02F
CONWAY           N/A     84  57  39 VRB5      30.01F
SEARCY         SUNNY     85  57  38 SW5       30.03F
HOT SPRINGS    CLOUDY    84  55  36 S6        30.04F
RUSSELLVILLE   CLOUDY    83  54  36 SW7       30.03F
CLINTON        FAIR      84  59  42 VRB7      30.03F
$$

ARZ036-292000-
EAST ARKANSAS

CITY           SKY/WX    TMP DP  RH WIND       PRES   REMARKS
WEST MEMPHIS   SUNNY     83  61  47 N7        29.98F
$$

ARZ050-053-066-070-073-292000-
SOUTHWEST ARKANSAS

CITY           SKY/WX    TMP DP  RH WIND       PRES   REMARKS
ARKADELPHIA    FAIR      82  59  45 CALM      30.04F
CAMDEN         PTSUNNY   82  66  57 S7        30.03F HX  85
TEXARKANA      CLOUDY    82  62  50 CALM      30.05S
EL DORADO      PTSUNNY   74  68  81 S5        30.05F
DE QUEEN       CLOUDY    84  55  36 CALM      30.03F
$$

ARZ056-057-069-292000-
SOUTHEAST ARKANSAS

CITY           SKY/WX    TMP DP  RH WIND       PRES   REMARKS
PINE BLUFF     LGT RAIN  83  57  41 N5        30.03F
STUTTGART      CLOUDY    82  55  39 N6        30.03F
MONTICELLO     CLOUDY    78  68  71 S7        30.03F

$$






USA.gov is the U.S. government's official web portal to all federal, state and local government web resources and services.